Location: Człuchów
(53.6645°N, 17.3592°E)
Time: 10:45:10
(UTC+02:00)

ISS - Visible Passes

Search period start: 22 September 2018 00:00
Search period end: 02 October 2018 00:00
Orbit: 403 x 408 km, 51.6° (Epoch: 22 September)

Date Brightness Start Highest point End Pass type
(mag) Time Alt. Az. Time Alt. Az. Time Alt. Az.
22 Sep -1.3 20:28:43 10° S 20:28:50 10° S 20:28:50 10° S visible
23 Sep -1.2 21:11:47 10° SW 21:12:17 13° SW 21:12:17 13° SW visible
24 Sep -2.5 20:20:18 10° SSW 20:22:49 24° SSE 20:22:49 24° SSE visible
25 Sep -2.0 19:29:04 10° S 19:31:18 17° SE 19:33:12 12° ESE visible
25 Sep -2.2 21:04:06 10° WSW 21:05:53 27° SW 21:05:53 27° SW visible
26 Sep -3.1 20:12:22 10° SW 20:15:27 36° SSE 20:16:08 32° SE visible
26 Sep -0.8 21:48:26 10° W 21:48:49 13° WSW 21:48:49 13° WSW visible
27 Sep -2.6 19:20:47 10° SSW 19:23:38 27° SSE 19:26:17 11° E visible
27 Sep -2.9 20:56:32 10° WSW 20:58:57 41° SW 20:58:57 41° SW visible
28 Sep -3.5 20:04:41 10° WSW 20:07:53 50° SSE 20:09:02 33° ESE visible
28 Sep -1.0 21:40:58 10° W 21:41:42 16° W 21:41:42 16° W visible
29 Sep -3.1 19:12:53 10° SW 19:16:00 40° SSE 19:19:03 11° E visible
29 Sep -3.2 20:49:01 10° W 20:51:43 50° SW 20:51:43 50° SW visible
30 Sep -3.7 19:57:05 10° WSW 20:00:21 60° S 20:01:42 31° ESE visible
30 Sep -1.1 21:33:28 10° W 21:34:21 17° W 21:34:21 17° W visible
01 Oct -3.4 19:05:10 10° WSW 19:08:24 53° S 19:11:38 10° E visible
01 Oct -3.2 20:41:29 10° W 20:44:18 50° SW 20:44:18 50° SW visible
